Location: Blandford
(50.8667°N, 2.1667°W)
Time: 06:09:34
(UTC+00:00)

CZ-4C R/B - Pass Details

Date: 09 April 2020
Orbit: 637 x 1365 km, 63.4° (Epoch: 29 May)

Event Time Altitude Azimuth Distance (km) Brightness Sun altitude
Rises 22:36:20 0° 315° (NW) 3,792 6.7 -27.7°
Reaches altitude 10° 22:38:50 10° 312° (NW) 2,936 5.8 -27.9°
Maximum altitude 22:45:49 61° 234° (SW) 1,369 3.1 -28.4°
Enters shadow 22:46:59 55° 199° (SSW) 1,457 3.0 -28.4°
